Temp
-18 -18 -16 -16 -15 -14 -14 -14 -13 -13 -13 -14 -14 -14 -14 -14 -13 -13 -14 -14 -13 -13 -13 -12 -12 -12 -11 -10 -10 -10 -10 -10 -10 -11 -11 -11 -11 -11 -11 -11 -11 -11 -11
-18 -17 -17 -16 -15 -15 -15 -14 -14 -14 -14 -14 -14 -14 -14 -14 -13 -13 -13 -13 -13 -13 -13 -13 -12 -12 -11 -10 -10 -10 -10 -10 -10 -11 -11 -11 -12 -11 -11 -11 -11 -11 -12
-18 -17 -17 -17 -16 -16 -15 -15 -15 -15 -14 -14 -14 -14 -14 -14 -14 -13 -13 -13 -13 -13 -13 -13 -12 -12 -12 -11 -11 -10 -10 -10 -10 -10 -11 -11 -12 -11 -11 -11 -11 -12 -12
-17 -18 -17 -17 -17 -17 -16 -15 -15 -15 -15 -14 -14 -14 -14 -14 -14 -14 -14 -13 -13 -13 -13 -14 -13 -12 -12 -12 -11 -11 -11 -11 -11 -11 -10 -11 -11 -12 -11 -11 -12 -12 -12
-17 -17 -17 -17 -17 -17 -16 -16 -15 -15 -15 -15 -14 -14 -14 -14 -14 -14 -14 -13 -13 -13 -13 -13 -14 -13 -12 -12 -11 -11 -11 -11 -11 -10 -10 -11 -12 -12 -12 -12 -12 -12 -12
-17 -17 -17 -17 -17 -18 -17 -16 -16 -15 -15 -15 -15 -14 -14 -14 -14 -14 -13 -13 -13 -13 -13 -13 -13 -15 -13 -12 -11 -11 -11 -11 -11 -11 -11 -11 -12 -12 -12 -12 -12 -12 -12
-18 -17 -17 -17 -17 -18 -17 -16 -16 -16 -16 -15 -15 -15 -15 -14 -14 -14 -14 -13 -13 -13 -13 -13 -13 -13 -14 -14 -12 -12 -11 -11 -11 -11 -11 -12 -12 -12 -12 -12 -12 -12 -12
-17 -18 -18 -17 -17 -17 -17 -17 -17 -17 -16 -16 -16 -16 -16 -15 -15 -14 -14 -14 -13 -13 -13 -13 -13 -13 -13 -14 -14 -13 -12 -12 -11 -11 -11 -12 -12 -12 -12 -12 -12 -12 -12
-17 -17 -17 -17 -17 -17 -18 -18 -18 -17 -17 -17 -16 -16 -16 -16 -16 -15 -14 -14 -13 -13 -13 -13 -13 -13 -13 -13 -14 -14 -13 -13 -11 -11 -11 -12 -12 -12 -12 -12 -12 -12 -13
-17 -18 -17 -18 -18 -18 -18 -18 -17 -17 -17 -17 -17 -17 -16 -16 -16 -15 -15 -14 -14 -13 -13 -13 -13 -13 -13 -13 -13 -13 -13 -12 -11 -12 -12 -12 -12 -12 -12 -12 -12 -13 -12
-18 -18 -18 -18 -18 -17 -17 -18 -17 -17 -17 -17 -17 -17 -17 -16 -16 -16 -15 -14 -14 -13 -13 -13 -13 -13 -13 -13 -13 -13 -13 -12 -12 -12 -12 -13 -12 -12 -12 -12 -12 -12 -12
-17 -18 -17 -18 -18 -18 -18 -18 -17 -17 -17 -17 -16 -16 -16 -16 -16 -16 -16 -14 -14 -14 -13 -13 -13 -13 -13 -13 -13 -13 -13 -13 -12 -12 -13 -13 -12 -12 -12 -12 -12 -12 -12
-18 -18 -17 -18 -17 -17 -17 -17 -18 -18 -17 -17 -17 -17 -17 -17 -17 -16 -16 -15 -15 -14 -14 -13 -13 -13 -13 -13 -13 -13 -13 -13 -12 -12 -13 -12 -12 -12 -12 -12 -12 -12 -12
-18 -17 -17 -17 -18 -18 -18 -18 -18 -18 -18 -18 -18 -17 -17 -18 -18 -17 -16 -16 -15 -15 -14 -13 -14 -14 -13 -13 -12 -13 -13 -13 -12 -13 -13 -13 -12 -12 -13 -12 -12 -12 -12
-16 -16 -17 -18 -18 -18 -18 -18 -18 -18 -18 -18 -18 -17 -17 -17 -18 -18 -17 -17 -16 -15 -14 -14 -14 -14 -13 -13 -12 -14 -12 -12 -13 -13 -13 -13 -12 -13 -13 -13 -12 -12 -12
-16 -15 -16 -17 -18 -19 -19 -19 -18 -18 -18 -18 -18 -17 -17 -18 -18 -18 -16 -17 -16 -15 -15 -15 -16 -14 -13 -13 -13 -13 -12 -13 -13 -13 -13 -13 -13 -13 -13 -13 -12 -12 -13
-16 -15 -16 -17 -18 -19 -18 -18 -18 -18 -18 -18 -17 -17 -17 -18 -18 -18 -17 -16 -15 -15 -15 -16 -15 -13 -13 -13 -13 -12 -13 -13 -13 -13 -13 -13 -13 -13 -13 -13 -12 -12 -13
-15 -15 -16 -17 -18 -18 -18 -18 -18 -18 -18 -17 -17 -17 -17 -18 -18 -18 -16 -16 -15 -15 -16 -16 -14 -13 -13 -13 -13 -13 -13 -13 -13 -13 -13 -13 -13 -13 -13 -13 -13 -12 -13
-15 -15 -16 -17 -17 -17 -17 -17 -18 -18 -18 -18 -18 -18 -18 -17 -17 -16 -16 -16 -16 -16 -16 -14 -13 -14 -14 -13 -13 -13 -13 -13 -13 -13 -13 -13 -13 -13 -13 -13 -13 -13 -13
-16 -16 -17 -17 -18 -18 -18 -18 -18 -19 -19 -19 -19 -19 -18 -17 -17 -16 -16 -16 -16 -16 -14 -14 -14 -13 -13 -13 -13 -13 -13 -13 -13 -13 -13 -13 -13 -13 -13 -13 -13 -13 -13
-16 -17 -18 -18 -18 -18 -18 -18 -18 -19 -19 -20 -20 -20 -19 -17 -16 -16 -16 -16 -15 -14 -14 -14 -14 -13 -13 -13 -13 -14 -14 -13 -14 -14 -14 -14 -14 -14 -13 -13 -13 -13 -13
-16 -17 -17 -18 -18 -17 -17 -18 -18 -18 -18 -19 -19 -18 -17 -16 -16 -16 -15 -15 -14 -14 -14 -13 -13 -13 -13 -13 -14 -14 -14 -14 -14 -14 -13 -13 -14 -14 -14 -14 -13 -13 -13
-14 -14 -14 -14 -15 -16 -16 -17 -17 -17 -17 -17 -16 -16 -16 -16 -15 -14 -14 -14 -13 -14 -12 -13 -13 -13 -13 -13 -14 -13 -13 -14 -13 -13 -13 -14 -14 -14 -13 -13 -13 -13 -13
-12 -12 -12 -13 -13 -13 -13 -14 -15 -16 -16 -16 -16 -16 -15 -14 -13 -13 -13 -13 -13 -12 -13 -13 -13 -13 -13 -14 -14 -14 -14 -13 -13 -13 -14 -14 -14 -13 -13 -13 -13 -13 -14
-12 -12 -12 -12 -11 -12 -12 -12 -13 -13 -14 -14 -14 -13 -13 -13 -13 -13 -13 -13 -13 -13 -13 -13 -13 -13 -14 -14 -14 -14 -13 -13 -14 -14 -14 -14 -14 -14 -14 -14 -14 -14 -14
-13 -13 -13 -13 -13 -12 -13 -13 -12 -12 -13 -13 -13 -13 -13 -13 -13 -13 -13 -13 -13 -13 -13 -14 -14 -14 -14 -14 -13 -13 -13 -14 -14 -14 -14 -14 -13 -13 -14 -14 -14 -14 -14
Height
5664 5666 5670 5675 5680 5684 5689 5695 5699 5704 5708 5711 5714 5718 5722 5727 5731 5735 5738 5739 5742 5746 5748 5748 5751 5752 5757 5758 5762 5763 5764 5765 5767 5766 5766 5765 5764 5763 5763 5762 5761 5757 5753
5649 5652 5658 5664 5669 5673 5677 5681 5687 5691 5696 5700 5704 5708 5712 5716 5720 5724 5727 5730 5733 5736 5738 5739 5743 5743 5747 5747 5752 5755 5755 5756 5758 5758 5758 5757 5756 5756 5757 5756 5755 5752 5748
5637 5641 5647 5654 5658 5661 5665 5669 5673 5678 5683 5688 5692 5696 5701 5706 5710 5714 5718 5721 5724 5727 5729 5730 5731 5734 5738 5738 5741 5744 5747 5748 5748 5748 5749 5748 5749 5749 5751 5750 5749 5746 5744
5625 5630 5636 5642 5647 5650 5653 5658 5663 5667 5671 5676 5681 5685 5690 5695 5699 5704 5708 5712 5715 5718 5720 5720 5720 5723 5728 5729 5732 5735 5738 5739 5740 5742 5741 5741 5742 5743 5745 5743 5742 5741 5739
5615 5620 5625 5630 5636 5640 5643 5647 5652 5656 5661 5666 5671 5675 5680 5685 5689 5694 5698 5702 5706 5710 5711 5713 5713 5715 5718 5721 5721 5727 5730 5733 5734 5735 5734 5734 5736 5737 5737 5736 5735 5734 5732
5601 5607 5612 5617 5623 5628 5631 5635 5641 5645 5650 5655 5660 5665 5671 5675 5680 5685 5689 5693 5697 5700 5703 5705 5706 5707 5708 5711 5712 5716 5720 5724 5725 5726 5727 5726 5729 5730 5731 5730 5729 5728 5726
5584 5590 5596 5602 5610 5615 5618 5622 5627 5632 5638 5644 5648 5654 5659 5664 5669 5674 5679 5684 5688 5691 5694 5696 5699 5700 5700 5701 5704 5707 5711 5715 5718 5719 5720 5720 5722 5724 5723 5723 5722 5721 5722
5568 5574 5580 5586 5592 5599 5605 5610 5614 5619 5626 5631 5637 5642 5648 5653 5658 5663 5669 5674 5678 5682 5686 5688 5691 5693 5694 5694 5694 5698 5704 5706 5708 5712 5712 5713 5715 5718 5717 5716 5716 5717 5715
5553 5558 5563 5568 5576 5582 5592 5597 5602 5607 5613 5620 5625 5631 5636 5642 5646 5652 5658 5663 5668 5672 5677 5680 5683 5685 5686 5687 5689 5693 5696 5699 5701 5705 5706 5705 5710 5711 5710 5711 5713 5712 5707
5535 5539 5544 5552 5560 5567 5577 5583 5588 5594 5601 5606 5613 5618 5623 5629 5635 5641 5647 5652 5658 5663 5666 5671 5674 5676 5677 5678 5681 5686 5690 5691 5693 5697 5700 5700 5704 5704 5704 5707 5708 5706 5704
5513 5519 5526 5534 5543 5551 5558 5564 5571 5579 5585 5593 5600 5605 5610 5616 5622 5628 5634 5640 5647 5651 5656 5662 5665 5667 5668 5670 5675 5680 5682 5684 5686 5690 5692 5694 5696 5698 5700 5702 5702 5700 5701
5489 5497 5507 5515 5523 5532 5540 5548 5554 5560 5567 5574 5581 5588 5595 5601 5607 5613 5619 5626 5633 5640 5646 5650 5655 5656 5660 5663 5668 5671 5674 5677 5677 5682 5685 5688 5690 5693 5695 5697 5696 5694 5696
5462 5473 5483 5493 5503 5513 5521 5529 5537 5544 5550 5557 5564 5572 5578 5582 5587 5593 5602 5609 5619 5628 5635 5639 5644 5646 5649 5656 5661 5663 5665 5667 5670 5675 5678 5682 5686 5688 5689 5690 5690 5691 5692
5437 5445 5457 5471 5483 5492 5501 5510 5519 5527 5534 5541 5547 5553 5558 5563 5568 5576 5583 5592 5602 5613 5620 5627 5633 5636 5642 5649 5652 5655 5657 5660 5664 5669 5673 5676 5679 5681 5683 5684 5685 5687 5688
5418 5426 5437 5450 5464 5473 5481 5492 5501 5510 5517 5524 5529 5535 5541 5547 5551 5557 5567 5576 5588 5596 5606 5615 5622 5629 5636 5643 5648 5649 5649 5655 5660 5663 5666 5669 5673 5675 5677 5678 5680 5681 5682
5410 5416 5426 5438 5449 5457 5464 5472 5484 5495 5502 5508 5516 5521 5528 5533 5536 5541 5552 5563 5574 5586 5595 5607 5614 5624 5630 5637 5642 5641 5645 5649 5655 5658 5660 5664 5667 5669 5671 5672 5674 5675 5677
5402 5409 5419 5429 5440 5448 5455 5464 5475 5484 5490 5497 5503 5510 5517 5523 5528 5532 5540 5552 5563 5575 5589 5600 5610 5618 5624 5631 5633 5636 5641 5646 5650 5652 5656 5658 5660 5663 5664 5667 5670 5672 5674
5400 5408 5416 5424 5434 5443 5451 5459 5466 5474 5481 5487 5493 5500 5506 5512 5518 5525 5534 5545 5558 5572 5585 5597 5605 5612 5618 5624 5628 5633 5637 5641 5644 5648 5650 5652 5655 5657 5660 5664 5667 5669 5671
5401 5408 5416 5425 5434 5442 5448 5455 5462 5468 5473 5479 5483 5489 5496 5503 5511 5521 5533 5546 5558 5571 5582 5592 5600 5608 5614 5620 5624 5628 5632 5636 5639 5642 5645 5647 5650 5652 5656 5660 5663 5664 5667
5405 5411 5419 5427 5434 5441 5447 5453 5459 5464 5467 5471 5475 5481 5490 5501 5512 5524 5537 5547 5560 5570 5579 5588 5597 5604 5610 5616 5621 5624 5628 5632 5635 5638 5641 5643 5646 5649 5653 5656 5659 5661 5663
5418 5420 5425 5430 5436 5441 5447 5453 5458 5463 5468 5472 5476 5481 5488 5501 5514 5529 5540 5550 5560 5570 5578 5586 5595 5602 5608 5614 5617 5621 5625 5629 5632 5636 5639 5641 5644 5647 5650 5654 5656 5658 5660
5434 5433 5432 5436 5440 5443 5449 5456 5462 5468 5473 5478 5483 5490 5499 5511 5523 5534 5543 5552 5562 5570 5580 5586 5593 5600 5605 5609 5613 5617 5622 5625 5630 5634 5636 5639 5642 5646 5649 5651 5653 5655 5656
5451 5449 5449 5449 5451 5455 5460 5466 5471 5477 5482 5488 5494 5501 5510 5519 5528 5538 5547 5556 5565 5572 5578 5586 5592 5597 5603 5606 5611 5615 5619 5623 5627 5631 5634 5637 5641 5644 5646 5648 5650 5652 5653
5473 5470 5468 5468 5470 5472 5475 5479 5484 5488 5493 5499 5505 5511 5518 5527 5534 5542 5550 5556 5559 5570 5580 5586 5591 5596 5600 5605 5609 5613 5618 5622 5625 5629 5632 5636 5640 5642 5644 5646 5648 5649 5652
5491 5489 5487 5487 5488 5489 5490 5493 5496 5499 5503 5507 5513 5520 5526 5532 5537 5543 5552 5554 5565 5574 5580 5586 5590 5594 5598 5602 5607 5611 5615 5619 5623 5627 5631 5634 5637 5639 5642 5644 5646 5648 5650
5503 5503 5503 5503 5503 5505 5505 5506 5508 5512 5515 5519 5523 5528 5533 5539 5545 5550 5556 5563 5570 5576 5580 5584 5588 5592 5596 5600 5604 5609 5614 5617 5621 5624 5629 5632 5635 5637 5639 5641 5643 5645 5646
Wind_Speed
42 43 46 48 53 57 59 55 52 50 52 51 50 47 48 47 45 44 39 33 29 31 34 33 31 31 36 34 34 32 32 34 27 29 30 29 22 23 23 27 27 26 25
51 52 50 44 45 46 49 53 54 53 51 51 51 50 46 47 45 41 41 35 34 33 36 34 32 34 39 34 37 33 35 31 31 30 28 27 21 23 22 27 26 25 26
54 53 49 41 39 40 42 45 49 52 54 54 53 50 48 46 46 43 41 38 37 38 37 39 38 43 43 35 32 35 32 32 31 26 30 25 20 23 22 24 23 25 26
59 55 48 41 38 41 44 44 45 46 47 47 48 47 46 43 40 39 37 36 37 36 36 36 40 40 42 43 41 36 33 35 34 32 33 28 23 21 23 22 23 25 26
58 54 50 47 43 43 41 43 46 47 47 46 45 44 43 41 39 38 37 36 35 34 34 34 34 42 43 44 40 40 34 34 34 35 33 27 21 20 21 21 23 25 25
61 55 54 53 50 49 45 43 43 48 50 49 47 46 44 43 42 40 38 36 34 33 32 33 32 30 39 42 42 39 35 35 34 34 31 29 21 22 21 22 24 25 25
56 54 53 55 51 52 52 50 50 52 53 51 50 48 46 46 45 43 41 38 36 35 32 33 33 31 35 42 49 50 43 40 39 35 32 31 20 22 21 22 23 24 25
54 60 58 56 56 55 56 55 53 52 52 51 48 45 42 41 42 43 44 43 39 37 37 36 34 35 35 35 38 45 45 45 41 34 36 26 20 21 20 21 22 25 24
56 58 57 55 65 67 57 56 58 56 50 49 48 45 42 41 39 41 43 44 42 39 39 39 37 37 38 39 37 35 38 41 35 36 36 20 19 19 18 20 22 22 17
60 60 61 66 58 59 56 46 50 51 60 51 50 48 49 49 48 47 46 46 44 43 43 42 41 40 40 42 43 38 39 37 33 34 27 17 21 18 19 21 21 16 15
64 66 67 65 66 60 65 58 52 52 58 59 59 58 58 56 56 54 54 53 45 44 44 43 43 43 41 41 40 39 38 40 35 34 28 21 16 19 19 21 19 14 16
68 63 64 65 65 63 66 61 62 61 62 60 60 62 66 65 66 66 63 60 54 51 49 48 45 46 43 40 36 37 33 43 32 28 22 18 18 20 19 19 17 12 16
74 74 71 68 65 64 60 58 58 57 57 58 61 62 63 66 65 67 60 64 66 61 59 57 51 48 45 38 35 36 34 35 31 26 18 18 18 18 18 17 14 12 13
68 75 72 66 63 60 62 58 59 55 53 56 61 59 53 52 58 60 58 62 64 61 62 61 54 50 45 38 39 37 30 30 25 20 18 15 18 17 17 16 15 14 13
39 51 58 64 54 51 57 57 57 59 62 55 52 53 52 53 54 59 56 51 56 55 61 58 51 48 43 37 34 38 31 25 20 18 16 17 17 16 16 14 15 17 17
25 36 42 41 38 40 44 50 51 45 44 45 42 39 40 39 38 43 51 51 57 55 60 49 42 42 40 34 41 32 24 18 18 16 16 17 16 16 14 12 12 12 12
21 28 35 35 33 33 32 35 40 39 40 38 37 41 41 38 33 37 49 49 54 57 52 43 36 39 35 36 27 26 19 18 16 15 14 14 13 15 15 13 12 11 13
17 28 29 28 28 27 28 30 32 32 31 32 36 39 42 41 40 41 49 43 51 50 41 35 35 35 35 32 20 18 17 16 14 13 14 14 15 15 15 15 16 14 14
13 25 26 22 22 20 20 23 26 29 29 32 35 35 35 34 38 43 44 39 42 36 34 36 37 37 34 24 21 18 16 13 12 14 15 15 14 15 17 18 20 18 14
11 16 22 20 17 21 21 23 25 26 24 20 22 28 39 41 41 39 39 37 34 35 36 35 35 32 28 24 21 17 14 14 15 14 14 14 14 14 19 21 20 16 14
26 15 16 15 15 16 19 19 17 20 20 24 22 23 34 45 44 36 36 35 35 36 37 35 30 31 27 23 19 16 17 18 17 17 16 15 17 20 19 18 16 14 12
39 37 28 22 20 21 25 28 24 23 23 25 29 33 39 40 37 37 36 37 37 35 31 28 32 28 25 22 19 20 21 19 19 19 19 17 16 16 16 15 13 12 10
47 48 47 42 35 28 26 27 27 29 29 30 34 36 36 37 38 38 36 33 34 33 30 31 28 25 23 20 21 21 20 20 21 21 19 16 15 15 14 13 11 10 10
38 34 39 38 35 29 26 28 30 32 31 29 28 29 36 39 34 32 34 39 39 34 29 26 25 24 22 22 20 19 20 22 21 18 15 14 16 16 14 13 11 11 9
30 34 31 29 30 30 27 26 25 26 26 30 36 40 33 37 39 32 30 28 30 28 26 25 25 23 23 22 21 22 22 21 18 16 16 18 19 16 15 14 12 9 7
19 23 24 24 28 25 25 22 23 30 34 30 34 32 36 36 32 26 28 28 27 25 25 24 22 21 22 24 24 23 22 19 18 19 20 20 17 15 15 13 11 9 9
Wind_Direction
231 233 234 237 241 245 247 247 247 246 247 251 253 253 252 254 254 255 257 256 254 261 266 271 261 252 264 263 268 265 274 276 280 272 273 276 279 284 296 295 295 296 300
229 231 233 234 235 237 241 244 243 243 244 247 251 254 255 253 255 256 255 254 252 259 268 271 258 239 257 262 263 262 264 272 278 267 271 274 269 280 293 290 292 296 298
231 234 238 237 240 240 241 240 241 243 244 244 247 251 254 257 259 258 256 257 258 256 263 267 255 238 248 249 246 258 259 272 265 259 274 271 263 278 290 287 287 291 297
235 237 239 241 241 244 241 240 240 240 241 242 245 247 248 249 250 253 256 257 257 256 259 267 253 236 248 231 243 250 255 266 261 261 267 274 272 281 285 286 288 294 297
242 243 248 251 248 244 240 244 242 242 243 242 241 242 244 246 247 247 248 249 250 254 257 257 259 247 240 232 226 235 246 262 256 268 281 272 267 283 281 285 289 291 298
245 245 249 245 248 247 247 243 249 247 245 244 244 243 245 246 247 247 247 247 247 250 256 257 256 258 249 236 232 225 248 249 261 270 274 270 263 276 281 284 292 294 299
243 243 244 246 248 242 247 250 251 244 243 245 245 245 245 247 249 251 250 248 249 251 254 259 255 257 260 255 236 234 244 245 254 265 266 260 262 269 278 285 294 296 298
248 248 245 241 240 246 246 243 239 237 236 235 236 239 242 246 249 250 249 248 245 247 251 256 256 253 258 262 258 242 243 248 255 262 263 249 255 265 276 290 293 292 297
247 250 250 243 247 249 239 232 235 238 234 236 236 236 237 240 245 248 249 248 247 245 249 254 256 252 257 255 256 256 254 253 251 257 256 242 254 265 279 286 285 296 303
248 246 245 245 240 241 240 237 237 241 238 236 239 242 248 250 249 251 249 248 246 247 250 254 254 254 254 253 253 255 263 259 254 252 251 234 247 261 274 276 280 294 304
241 242 242 239 242 243 242 245 246 249 242 241 244 245 249 248 252 258 256 243 245 243 247 254 253 253 252 253 253 254 258 268 256 253 234 230 244 260 269 270 275 289 290
245 242 238 239 238 237 240 243 249 255 251 247 247 247 250 254 256 256 256 247 239 244 246 250 252 251 252 250 253 250 253 264 250 245 216 228 245 258 261 268 273 281 281
248 246 244 244 244 242 243 245 238 240 245 244 248 244 249 253 249 250 245 251 246 245 246 247 246 248 251 249 251 251 251 258 255 221 218 231 249 257 263 267 269 272 264
244 245 243 245 244 243 242 241 238 240 246 249 246 248 251 246 246 247 245 241 242 242 239 237 238 243 247 247 249 250 245 254 209 210 225 241 248 256 261 262 259 253 256
237 235 237 241 245 243 241 240 239 241 244 245 249 250 250 248 244 241 237 230 225 223 225 230 233 239 243 245 250 253 247 205 206 218 232 244 252 253 257 252 257 246 249
235 222 221 220 232 240 237 232 231 229 234 238 244 237 224 226 229 227 221 217 222 223 221 225 230 234 240 239 247 250 198 194 211 228 241 248 245 241 243 247 255 235 225
226 207 202 201 212 222 220 217 223 228 232 233 226 217 224 230 235 229 205 212 213 214 219 221 222 229 232 236 241 206 194 207 220 236 244 236 230 230 232 228 214 209 221
211 201 203 193 195 194 196 202 210 216 218 221 223 229 229 235 226 213 196 206 204 207 209 209 214 219 223 234 197 200 211 219 221 231 231 230 226 225 224 211 209 216 226
192 196 191 179 183 189 202 213 211 212 221 237 240 228 216 203 201 199 197 202 199 195 198 202 207 210 225 210 204 212 218 216 213 213 214 218 219 220 216 212 210 217 225
125 162 189 193 202 209 214 212 218 226 234 203 205 205 203 193 189 189 188 185 181 190 194 197 200 209 204 198 207 208 204 200 200 202 203 203 206 201 199 202 211 216 224
83 108 141 161 161 177 192 194 189 167 166 161 152 155 170 184 187 183 174 180 182 187 188 194 201 193 191 201 197 193 193 192 189 193 192 193 195 196 200 208 211 218 229
59 72 104 133 138 143 150 153 148 140 140 142 141 139 145 154 162 167 173 176 179 180 190 181 182 187 194 191 186 186 188 184 189 193 194 198 197 198 201 206 214 221 225
65 65 68 72 83 101 124 145 150 150 152 148 146 148 152 157 161 163 165 166 176 182 164 180 185 190 190 185 185 186 184 187 194 195 197 197 197 202 206 208 211 222 221
67 69 68 66 74 90 110 132 142 146 147 152 156 155 152 152 152 160 175 174 170 163 179 184 188 188 181 183 184 186 189 193 196 197 199 201 206 205 202 205 207 196 201
76 78 85 82 89 89 97 113 131 136 141 146 147 150 153 158 161 154 160 164 169 177 185 187 185 184 182 186 189 191 193 194 191 195 202 204 202 205 209 202 197 205 217
81 96 99 99 107 124 115 121 142 144 151 148 145 152 141 148 151 163 160 171 178 182 182 180 181 186 190 192 194 196 194 194 196 200 204 205 205 198 189 195 203 214 234